Location: Bishop�s Knoyle
(51.0728°N, 2.1714°W)
Time: 01:05:38
(UTC+00:00)

ISS - Pass Details

Date: 03 October 2021
Orbit: 417 x 423 km, 51.6° (Epoch: 24 October)

Event Time Altitude Azimuth Distance (km) Brightness Sun altitude
Rises 19:53:14 0° 279° (W) 2,366 1.5 -21.2°
Reaches altitude 10° 19:56:17 10° 249° (WSW) 1,498 -0.3 -21.6°
Maximum altitude 19:57:47 13° 222° (SW) 1,353 -1.0 -21.8°
Enters shadow 19:58:30 12° 209° (SSW) 1,385 -1.1 -21.9°
